Home   Weather   Fairbanks   Past weeks
Flag for USA

Past Weather in Fairbanks, Alaska, USA — Yesterday and Last 2 Weeks

Now
70 °F

Mostly cloudy.


Feels Like: 77 °F
Forecast: 73 / 53 °F
Wind: 6 mph from Southwest

Location: Wainwright U. S. Army Airfield

Current Time: Jul 21, 2019 at 1:35:51 pm

Latest Report: Jul 21, 2019 at 12:58 pm


Visibility: 9 mi

Pressure: 30.12 "Hg

Humidity: 52%

Dew Point: 52 °F

Location of FairbanksLocation

Past Weather in Fairbanks — Graph

°F

Fairbanks Temperature Yesterday

Maximum temperature yesterday: 71 °F (at 4:58 pm)
Minimum temperature yesterday: 51 °F (at 2:58 am)
Average temperature yesterday: 61 °F

High & Low Weather Summary for the Past Weeks

 TemperatureHumidityPressure
High86 °F (Jul 9, 4:58 pm)100% (Jul 11, 3:42 am)30.22 "Hg (Jul 11, 3:42 am)
Low50 °F (Jul 17, 6:07 am)24% (Jul 9, 2:58 pm)29.60 "Hg (Jul 16, 8:58 pm)
Average67 °F67%29.85 "Hg
* Reported Jul 6 11:58 am — Jul 21 11:58 am, Fairbanks. Weather by CustomWeather, © 2019

Note: Actual official high and low records may vary slightly from our data, if they occured in-between our weather recording intervals... More about our weather records

Advertising

Fairbanks Weather History for the Previous 24 Hours

Scroll right to see more
 ConditionsComfort  
Time TempWeatherWind HumidityBarometerVisibility
11:58 am
Sun, Jul 21
69 °FBroken clouds.8 mph55%30.12 "Hg10 mi
10:58 am64 °FScattered clouds.No wind67%30.12 "Hg10 mi
9:58 am63 °FOvercast.3 mph70%30.14 "Hg10 mi
8:58 am61 °FOvercast.No wind72%30.14 "Hg10 mi
7:58 am60 °FOvercast.3 mph74%30.14 "Hg10 mi
6:58 am59 °FOvercast.3 mph75%30.14 "Hg10 mi
5:58 am60 °FOvercast.3 mph75%30.12 "Hg10 mi
4:58 am60 °FOvercast.6 mph75%30.12 "Hg10 mi
3:58 am60 °FMostly cloudy.3 mph76%30.12 "Hg10 mi
2:58 am61 °FOvercast.7 mph71%30.11 "Hg10 mi
1:58 am61 °FOvercast.7 mph71%30.09 "Hg10 mi
12:58 am62 °FOvercast.6 mph68%30.09 "Hg10 mi
11:58 pm
Sat, Jul 20
63 °FOvercast.8 mph64%30.08 "Hg10 mi
10:58 pm64 °FPartly sunny.8 mph63%30.06 "Hg10 mi
9:58 pm65 °FSunny.9 mph57%30.06 "Hg9 mi
8:58 pm66 °FPassing clouds.12 mph57%30.04 "Hg9 mi
7:58 pm66 °FPassing clouds.17 mph56%30.05 "Hg8 mi
6:58 pm68 °FScattered clouds.17 mph50%30.03 "Hg8 mi
5:58 pm71 °FOvercast.16 mph47%30.02 "Hg8 mi
4:58 pm71 °FScattered clouds.18 mph47%30.02 "Hg9 mi
3:58 pm69 °FOvercast.15 mph54%30.02 "Hg9 mi
2:58 pm69 °FOvercast.16 mph55%30.02 "Hg9 mi
1:58 pm69 °FOvercast.13 mph53%30.01 "Hg10 mi
Weather by CustomWeather, © 2019

See weather overview